STARLINK-33781, 63826

Orbit data source: Space-Track

STARLINK-33781, 63826 is a payload satellite owned by SpaceX/Seattle (US) in LEO that was launched on Sun, 04 May 2025 UTC via an FALCON 9 launch vehicle from the Air Force Eastern Test Range (AFETR). Payload-class satellites include a variety of spacecraft equipped with specific instruments for various scientific and technological missions. These include communications satellites like Starlink; space stations such as the ISS; scientific satellites like the Hubble; Earth observation satellites from companies like Planet Labs, Umbra, and HawkEye 360; GPS; miniature CubeSats for education and research; and military/defense satellites.

Loading next visibility...
Identifier
63826, 2025-092Y
Orbit
LEO
Country
Flag of USUS
Related business
Manufacturer
SpaceX/Seattle
Mission
Operational Commercial Communications
Bus & Motor
STARLINK V2MO, Unknown motor
Mass
575 kg wet, ~530 kg dry
Launch date (UTC)
2025-05-04 (1 year ago)
Launch vehicle
FALCON 9
Launch site
Air Force Eastern Test Range (AFETR)
Object type
Payload
Rocket body
Debris
Shape & HBR
Box + 1 Pan, 17.7 m
Radar Cross Section
41.120 m², Large (>1 m²)

Expand to show TLE details & history
Last TLE update: 21 hours ago

TLE from 21 hours ago
0 STARLINK-33781
1 63826U 25092Y   26267.02317214  .00016532  00000-0  60873-3 0  9990
2 63826  43.0084 132.7601 0000733 302.1982  57.8799 15.27591600 78998
Epoch: 2026-09-24T00:33Z
TLE epoch observation values (Epoch: 2026-09-24T00:33:22.072Z)
Latitude
-0.00001°
Longitude
121.55222°
Altitude
482.523 km
Speed
7.626 km/s
True Right ascension
08h 51m 02s
True Declination
0° 00' 00"
Sunlit
Object was in daylight at epoch
Visualization orbit readout
Latitude
Unknown
Longitude
Unknown
Altitude
Unknown
Speed
Unknown
Apparent Right ascension
Unknown
Apparent Declination
Unknown
Sunlit
N/A
Visualization observer readout
Local Sidereal Time
14:18:26
Azimuth
Unknown
Elevation
Unknown
Doppler factor
Unknown
Orbital elements
Apogee altitude
485.461 km
Perigee altitude
484.455 km
Semi-major axis
6,863.095 km
Eccentricity
0.00007
Inclination
43.0084°
RAAN
132.7601°
Arg. of periapsis
302.1982°
True anomaly
57.88701°
Mean anomaly
57.8799°
Eccentric anomaly
57.88346°
Mean motion
3.81736 °/min
Orbital period
94.31 mins
BSTAR
0.00060873
Loading maneuver chart data...
Computing Atmospheric mass density...
Loading historical data...
Loading historical data...
Loading historical data...
Loading historical data...
Loading historical data...
Loading historical data...
Loading historical data...

Documentation

Showing up to 5 results
|